Time,TemperatureF,DewpointF,PressureIn,WindDirection,WindDirectionDegrees,WindSpeedMPH,WindSpeedGustMPH,Humidity,HourlyPrecipIn,Conditions,Clouds,dailyrainin,SoftwareType,DateUTC
2015-02-28 00:06:00,43.2,41.9,29.55,ENE,76,0.0,0.0,95,0.00,,,0.00,Wunderground v.1.15,2015-02-28 08:06:00,
2015-02-28 00:15:00,42.8,41.2,29.55,ENE,76,0.0,0.0,94,0.00,,,0.00,Wunderground v.1.15,2015-02-28 08:15:00,
2015-02-28 00:25:00,42.3,40.7,29.55,ENE,76,0.0,0.0,94,0.00,,,0.00,Wunderground v.1.15,2015-02-28 08:25:00,
2015-02-28 00:30:00,42.1,40.8,29.55,ENE,76,0.0,0.0,95,0.00,,,0.00,Wunderground v.1.15,2015-02-28 08:30:00,
2015-02-28 00:40:00,42.0,40.7,29.55,ENE,76,0.0,0.0,95,0.00,,,0.00,Wunderground v.1.15,2015-02-28 08:40:00,
2015-02-28 00:51:00,42.1,41.0,29.56,ENE,76,0.0,0.0,96,0.00,,,0.00,Wunderground v.1.15,2015-02-28 08:51:00,
2015-02-28 00:56:00,42.1,41.0,29.56,ENE,76,0.0,0.0,96,0.00,,,0.00,Wunderground v.1.15,2015-02-28 08:56:00,
2015-02-28 01:06:00,42.0,40.9,29.56,ENE,76,0.0,0.0,96,0.00,,,0.00,Wunderground v.1.15,2015-02-28 09:06:00,
2015-02-28 01:16:00,42.2,41.1,29.56,ENE,76,0.0,0.0,96,0.00,,,0.00,Wunderground v.1.15,2015-02-28 09:16:00,
2015-02-28 01:21:00,42.4,41.3,29.56,ENE,76,0.0,0.0,96,0.00,,,0.00,Wunderground v.1.15,2015-02-28 09:21:00,
2015-02-28 01:30:00,42.6,41.5,29.56,ENE,76,0.0,0.0,96,0.00,,,0.00,Wunderground v.1.15,2015-02-28 09:30:00,
2015-02-28 01:36:00,42.7,41.6,29.56,ENE,76,0.0,0.0,96,0.00,,,0.00,Wunderground v.1.15,2015-02-28 09:36:00,
2015-02-28 01:45:00,42.6,41.5,29.56,ENE,76,0.0,0.0,96,0.00,,,0.00,Wunderground v.1.15,2015-02-28 09:45:00,
2015-02-28 01:55:00,42.5,41.4,29.56,ENE,76,0.0,0.0,96,0.00,,,0.00,Wunderground v.1.15,2015-02-28 09:55:00,
2015-02-28 02:06:00,42.3,41.2,29.56,ENE,76,0.0,0.0,96,0.00,,,0.00,Wunderground v.1.15,2015-02-28 10:06:00,
2015-02-28 02:16:00,42.0,40.7,29.56,ENE,76,0.0,0.0,95,0.00,,,0.00,Wunderground v.1.15,2015-02-28 10:16:00,
2015-02-28 02:25:00,41.6,40.3,29.56,ENE,76,0.0,0.0,95,0.00,,,0.00,Wunderground v.1.15,2015-02-28 10:25:00,
2015-02-28 02:35:00,41.1,39.8,29.55,ENE,76,0.0,0.0,95,0.00,,,0.00,Wunderground v.1.15,2015-02-28 10:35:00,
2015-02-28 02:46:00,40.7,39.4,29.55,ENE,76,0.0,0.0,95,0.00,,,0.00,Wunderground v.1.15,2015-02-28 10:46:00,
2015-02-28 02:55:00,40.3,39.0,29.55,ENE,76,0.0,0.0,95,0.00,,,0.00,Wunderground v.1.15,2015-02-28 10:55:00,
2015-02-28 03:06:00,40.2,39.2,29.55,ENE,76,0.0,0.0,96,0.00,,,0.00,Wunderground v.1.15,2015-02-28 11:06:00,
2015-02-28 03:15:00,40.3,39.3,29.55,ENE,76,0.0,0.0,96,0.00,,,0.00,Wunderground v.1.15,2015-02-28 11:15:00,
2015-02-28 03:25:00,40.4,39.4,29.55,ENE,76,0.0,0.0,96,0.00,,,0.00,Wunderground v.1.15,2015-02-28 11:25:00,
2015-02-28 03:30:00,40.4,39.4,29.55,ENE,76,0.0,0.0,96,0.00,,,0.00,Wunderground v.1.15,2015-02-28 11:30:00,
2015-02-28 03:40:00,40.6,39.8,29.55,ENE,76,0.0,0.0,97,0.00,,,0.00,Wunderground v.1.15,2015-02-28 11:40:00,
2015-02-28 03:51:00,40.7,39.9,29.55,ENE,76,0.0,0.0,97,0.00,,,0.00,Wunderground v.1.15,2015-02-28 11:51:00,
2015-02-28 03:56:00,40.8,39.7,29.55,SSE,148,0.0,0.0,96,0.00,,,0.00,Wunderground v.1.15,2015-02-28 11:56:00,
2015-02-28 04:06:00,40.9,39.8,29.55,SSE,148,0.0,0.0,96,0.00,,,0.00,Wunderground v.1.15,2015-02-28 12:06:00,
2015-02-28 04:15:00,41.1,40.3,29.55,ENE,76,0.0,0.0,97,0.00,,,0.00,Wunderground v.1.15,2015-02-28 12:15:00,
2015-02-28 04:25:00,41.0,40.2,29.55,ENE,76,0.0,0.0,97,0.00,,,0.00,Wunderground v.1.15,2015-02-28 12:25:00,
2015-02-28 04:31:00,41.0,39.9,29.55,SSE,148,0.0,0.0,96,0.00,,,0.00,Wunderground v.1.15,2015-02-28 12:31:00,
2015-02-28 04:40:00,40.9,39.8,29.55,SSE,148,0.0,0.0,96,0.00,,,0.00,Wunderground v.1.15,2015-02-28 12:40:00,
2015-02-28 04:50:00,41.0,39.9,29.55,SSE,148,0.0,0.0,96,0.00,,,0.00,Wunderground v.1.15,2015-02-28 12:50:00,
2015-02-28 04:56:00,41.2,40.1,29.55,SSE,148,0.0,0.0,96,0.00,,,0.00,Wunderground v.1.15,2015-02-28 12:56:00,
2015-02-28 05:06:00,41.2,40.1,29.55,SSE,148,0.0,0.0,96,0.00,,,0.00,Wunderground v.1.15,2015-02-28 13:06:00,
2015-02-28 05:15:00,41.2,40.1,29.55,SSE,148,0.0,0.0,96,0.00,,,0.00,Wunderground v.1.15,2015-02-28 13:15:00,
2015-02-28 05:21:00,41.2,40.1,29.55,SSE,148,0.0,0.0,96,0.00,,,0.00,Wunderground v.1.15,2015-02-28 13:21:00,
2015-02-28 05:30:00,41.2,40.1,29.56,SSE,148,0.0,0.0,96,0.00,,,0.00,Wunderground v.1.15,2015-02-28 13:30:00,
2015-02-28 05:40:00,41.1,40.0,29.56,SSE,148,0.0,0.0,96,0.00,,,0.00,Wunderground v.1.15,2015-02-28 13:40:00,
2015-02-28 05:50:00,41.1,40.0,29.56,SSE,148,0.0,0.0,96,0.00,,,0.00,Wunderground v.1.15,2015-02-28 13:50:00,
2015-02-28 05:56:00,41.2,40.1,29.56,SSE,148,0.0,0.0,96,0.00,,,0.00,Wunderground v.1.15,2015-02-28 13:56:00,
2015-02-28 06:06:00,41.2,40.1,29.56,SSE,148,0.0,0.0,96,0.00,,,0.00,Wunderground v.1.15,2015-02-28 14:06:00,
2015-02-28 06:15:00,41.3,40.2,29.57,SSE,148,0.0,0.0,96,0.00,,,0.00,Wunderground v.1.15,2015-02-28 14:15:00,
2015-02-28 06:26:00,41.4,40.3,29.57,SSE,148,0.0,0.0,96,0.00,,,0.00,Wunderground v.1.15,2015-02-28 14:26:00,
2015-02-28 06:35:00,41.4,40.3,29.57,SSE,148,0.0,0.0,96,0.00,,,0.00,Wunderground v.1.15,2015-02-28 14:35:00,
2015-02-28 06:45:00,41.5,40.4,29.57,SSE,148,0.0,0.0,96,0.00,,,0.00,Wunderground v.1.15,2015-02-28 14:45:00,
2015-02-28 06:51:00,41.6,40.5,29.57,SSE,148,0.0,0.0,96,0.00,,,0.00,Wunderground v.1.15,2015-02-28 14:51:00,
2015-02-28 07:00:00,41.9,41.1,29.58,SSE,148,0.0,0.0,97,0.00,,,0.00,Wunderground v.1.15,2015-02-28 15:00:00,
2015-02-28 07:06:00,42.1,41.0,29.58,SSE,148,0.0,0.0,96,0.00,,,0.00,Wunderground v.1.15,2015-02-28 15:06:00,
2015-02-28 07:15:00,42.3,41.2,29.59,SSE,148,0.0,0.0,96,0.00,,,0.00,Wunderground v.1.15,2015-02-28 15:15:00,
2015-02-28 07:21:00,42.0,41.2,29.59,SE,130,0.0,0.0,97,0.00,,,0.00,Wunderground v.1.15,2015-02-28 15:21:00,
2015-02-28 07:26:00,42.0,40.9,29.59,SE,130,0.0,0.0,96,0.00,,,0.00,Wunderground v.1.15,2015-02-28 15:26:00,
2015-02-28 07:35:00,42.3,41.5,29.59,SE,130,0.0,0.0,97,0.00,,,0.00,Wunderground v.1.15,2015-02-28 15:35:00,
2015-02-28 07:45:00,42.6,41.5,29.60,SE,127,0.0,1.0,96,0.00,,,0.00,Wunderground v.1.15,2015-02-28 15:45:00,
2015-02-28 07:51:00,42.7,41.6,29.60,SSW,204,1.0,1.0,96,0.00,,,0.00,Wunderground v.1.15,2015-02-28 15:51:00,
2015-02-28 08:00:00,42.8,41.5,29.61,SSW,204,0.0,2.0,95,0.00,,,0.00,Wunderground v.1.15,2015-02-28 16:00:00,
2015-02-28 08:06:00,42.8,41.2,29.61,SSW,204,0.0,2.0,94,0.00,,,0.00,Wunderground v.1.15,2015-02-28 16:06:00,
2015-02-28 08:15:00,43.0,41.4,29.61,SE,127,2.0,2.0,94,0.00,,,0.00,Wunderground v.1.15,2015-02-28 16:15:00,
2015-02-28 08:26:00,43.3,41.7,29.61,ESE,114,2.0,4.0,94,0.00,,,0.00,Wunderground v.1.15,2015-02-28 16:26:00,